Geneva, Switzerland

4:30 AM CEST on April 26, 2018 (GMT +0200)
Cointrin

Weather History for LSGG - March, 2013

Change the Weather History Date:

Wednesday, March 6, 2013

  Actual Average Record
Temperature  
Mean Temperature 39 °F -  
Max Temperature 48 °F 50 °F 59 °F (1998)
Min Temperature 30 °F 34 °F 24 °F (2006)
Degree Days  
Heating Degree Days 26    
Moisture  
Dew Point 35 °F    
Average Humidity 79    
Maximum Humidity 93    
Minimum Humidity 52    
Precipitation  
Precipitation 0.03 in 0.09 in - ()
Sea Level Pressure  
Sea Level Pressure 29.60 in    
Wind  
Wind Speed 2 mph ()    
Max Wind Speed 7 mph    
Max Gust Speed -    
Visibility 5.5 miles    
Events Rain    
Averages and records for this station are not official NWS values.
T = Trace of Precipitation, MM = Missing Value Source: Averaged Metar Reports

Daily Weather History Graph

Daily Weather History Graph

Search for Another Location

Airport or City:

Astronomy

Mar. 06, 2013 Rise Set
Actual Time 7:05 AM CET 6:28 PM CET
Civil Twilight 6:35 AM CET 6:58 PM CET
Nautical Twilight 6:00 AM CET 7:33 PM CET
Astronomical Twilight 5:25 AM CET 8:08 PM CET
Moon 3:14 AM CET (3/6) 12:39 PM CET (3/6)
Length of Visible Light 12h 23m
Length of Day
11h 23m
Waning Crescent, 33% of the Moon is Illuminated
Mar 6
Waning Crescent
Mar 11
New
Mar 19
First Quarter
Mar 27
Full
Apr 3
Last Quarter

Hourly Weather History & Observations

Time (CET) Temp. Windchill Dew Point Humidity Pressure Visibility Wind Dir Wind Speed Gust Speed Precip Events Conditions
12:00 AM 32 °F - 29 °F 82% 29.78 in - NW 1.2 mph - -  
12:20 AM 32.0 °F - 30.2 °F 93% 29.71 in 3.7 mi Variable 2.3 mph - N/A   Unknown
12:50 AM 32.0 °F - 30.2 °F 93% 29.71 in 3.7 mi West 1.2 mph - N/A   Scattered Clouds
1:00 AM 33 °F - 29 °F 81% 29.77 in 4 mi West 2.3 mph - -   Mist
1:20 AM 32.0 °F - 30.2 °F 93% 29.71 in 3.7 mi Variable 2.3 mph - N/A   Scattered Clouds
1:50 AM 32.0 °F 27.5 °F 30.2 °F 93% 29.71 in 3.7 mi SW 4.6 mph - N/A   Unknown
2:00 AM 35 °F - 30 °F 76% 29.76 in - SW 4.6 mph - -  
2:50 AM 33.8 °F 30.8 °F 32.0 °F 93% 29.68 in 4.3 mi Variable 3.5 mph - N/A   Unknown
3:00 AM 35 °F - 31 °F 78% 29.75 in - NW 2.3 mph - -  
3:20 AM 35.6 °F 31.7 °F 32.0 °F 87% 29.68 in 4.3 mi WSW 4.6 mph - N/A Rain Light Rain
3:50 AM 35.6 °F 31.7 °F 32.0 °F 87% 29.65 in 5.0 mi Variable 4.6 mph - N/A Rain Light Rain
4:20 AM 35.6 °F - 33.8 °F 93% 29.65 in 4.3 mi Variable 2.3 mph - N/A   Mostly Cloudy
4:50 AM 35.6 °F - 33.8 °F 93% 29.65 in 5.6 mi Variable 2.3 mph - N/A   Unknown
5:00 AM 36 °F - 34 °F 87% 29.71 in - SSW 1.2 mph - -  
5:20 AM 35.6 °F - 33.8 °F 93% 29.65 in 5.6 mi Calm Calm - N/A   Mostly Cloudy
5:50 AM 35.6 °F - 33.8 °F 93% 29.62 in 5.6 mi Variable 1.2 mph - N/A   Mostly Cloudy
6:00 AM 36 °F - 34 °F 89% 29.69 in - NW 1.2 mph - -  
6:20 AM 37.4 °F - 33.8 °F 87% 29.62 in 5.6 mi Variable 2.3 mph - N/A   Mostly Cloudy
6:50 AM 37.4 °F 34.9 °F 33.8 °F 87% 29.62 in 6.2 mi Variable 3.5 mph - N/A   Mostly Cloudy
7:00 AM 38 °F - 33 °F 77% 29.67 in 7 mi SW 3.5 mph - -   Mist
7:20 AM 39.2 °F 37.0 °F 33.8 °F 81% 29.59 in 6.2 mi Variable 3.5 mph - N/A   Mostly Cloudy
7:50 AM 39.2 °F - 33.8 °F 81% 29.59 in 6.2 mi Variable 2.3 mph - N/A   Mostly Cloudy
8:00 AM 39 °F - 35 °F 79% 29.64 in - NE 2.3 mph - -  
8:20 AM 39.2 °F 35.9 °F 33.8 °F 81% 29.59 in 6.2 mi ESE 4.6 mph - N/A Rain Light Rain
8:50 AM 41.0 °F 39.0 °F 35.6 °F 81% 29.59 in 5.6 mi Variable 3.5 mph - N/A   Mostly Cloudy
9:00 AM 41 °F - 35 °F 71% 29.64 in - WNW 6.9 mph - -  
9:20 AM 41.0 °F 38.0 °F 33.8 °F 76% 29.62 in 5.0 mi Variable 4.6 mph - N/A   Mostly Cloudy
9:50 AM 41.0 °F 39.0 °F 35.6 °F 81% 29.62 in 4.3 mi Variable 3.5 mph - N/A Rain Light Rain
10:20 AM 41.0 °F 38.0 °F 37.4 °F 87% 29.59 in 4.3 mi ESE 4.6 mph - N/A Rain Light Rain
10:50 AM 41.0 °F - 39.2 °F 93% 29.59 in 3.7 mi Variable 2.3 mph - N/A Rain Light Rain
11:00 AM 41 °F - 37 °F 82% 29.63 in - SE 3.5 mph - -  
11:20 AM 41.0 °F - 39.2 °F 93% 29.59 in 3.1 mi Variable 1.2 mph - N/A   Mostly Cloudy
11:50 AM 42.8 °F - 39.2 °F 87% 29.59 in 3.7 mi Variable 2.3 mph - N/A   Mostly Cloudy
12:00 PM 42 °F - 38 °F 79% 29.62 in - WNW 3.5 mph - -  
12:20 PM 42.8 °F - 39.2 °F 87% 29.56 in 4.3 mi Variable 2.3 mph - N/A   Mostly Cloudy
12:50 PM 44.6 °F - 37.4 °F 76% 29.56 in 5.6 mi Variable 2.3 mph - N/A   Mostly Cloudy
1:00 PM 45 °F - 37 °F 64% 29.59 in 5 mi SE 2.3 mph - -   Mist
1:20 PM 48.2 °F - 35.6 °F 62% 29.56 in 6.2 mi Variable 1.2 mph - N/A   Mostly Cloudy
1:50 PM 48.2 °F - 35.6 °F 62% 29.53 in 6.2 mi Variable 2.3 mph - N/A   Mostly Cloudy
2:00 PM 47 °F - 37 °F 59% 29.56 in - North 2.3 mph - -  
2:20 PM 48.2 °F - 37.4 °F 66% 29.53 in 6.2 mi Variable 1.2 mph - N/A   Mostly Cloudy
2:50 PM 46.4 °F 45.2 °F 35.6 °F 66% 29.53 in 6.2 mi East 3.5 mph - N/A   Mostly Cloudy
3:00 PM 46 °F - 35 °F 55% 29.55 in - North 2.3 mph - -  
3:20 PM 46.4 °F - 37.4 °F 71% 29.53 in 6.2 mi Variable 2.3 mph - N/A   Mostly Cloudy
3:50 PM 46.4 °F - 37.4 °F 71% 29.53 in 6.2 mi Variable 1.2 mph - N/A   Mostly Cloudy
4:20 PM 48.2 °F - 37.4 °F 66% 29.53 in 6.2 mi Calm Calm - N/A   Mostly Cloudy
4:50 PM 48.2 °F - 37.4 °F 66% 29.50 in 6.2 mi Variable 1.2 mph - N/A   Mostly Cloudy
5:00 PM 47 °F - 37 °F 59%  in - NW 2.3 mph - -  
5:20 PM 48.2 °F - 37.4 °F 66% 29.50 in 6.2 mi Variable 2.3 mph - N/A   Mostly Cloudy
5:50 PM 48.2 °F - 37.4 °F 66% 29.50 in 6.2 mi Variable 2.3 mph - N/A   Overcast
6:00 PM 46 °F - 37 °F 61% 29.52 in - ESE 2.3 mph - -  
6:20 PM 46.4 °F - 37.4 °F 71% 29.50 in 6.2 mi Variable 2.3 mph - N/A   Overcast
6:50 PM 46.4 °F - 37.4 °F 71% 29.50 in 6.2 mi Calm Calm - N/A   Overcast
7:00 PM 48 °F - 36 °F 52% 29.53 in 7 mi NNW 2.3 mph - -   Haze
7:20 PM 46.4 °F - 37.4 °F 71% 29.50 in 6.2 mi Variable 1.2 mph - N/A   Overcast
7:50 PM 44.6 °F - 37.4 °F 76% 29.53 in 6.2 mi Variable 2.3 mph - N/A   Mostly Cloudy
8:00 PM 44 °F - 37 °F 68% 29.56 in - SW 2.3 mph - -  
8:20 PM 42.8 °F - 37.4 °F 81% 29.53 in 6.2 mi SW 2.3 mph - N/A   Mostly Cloudy
8:50 PM 42.8 °F - 37.4 °F 81% 29.53 in 6.2 mi Calm Calm - N/A   Mostly Cloudy
9:00 PM 42 °F - 37 °F 75% 29.57 in - NNW 1.2 mph - -  
9:20 PM 41.0 °F - 37.4 °F 87% 29.53 in 6.2 mi Calm Calm - N/A   Mostly Cloudy
9:50 PM 42.8 °F - 37.4 °F 81% 29.53 in 6.2 mi NNW 1.2 mph - N/A   Mostly Cloudy
10:20 PM 41.0 °F - 37.4 °F 87% 29.53 in 6.2 mi Variable 2.3 mph - N/A   Mostly Cloudy
10:50 PM 41.0 °F - 37.4 °F 87% 29.53 in 6.2 mi Variable 1.2 mph - N/A   Mostly Cloudy
11:00 PM 41 °F - 37 °F 80% 29.59 in - NNE 1.2 mph - -  
11:20 PM 39.2 °F - 35.6 °F 87% 29.53 in 6.2 mi Variable 2.3 mph - N/A   Mostly Cloudy
11:50 PM 41.0 °F - 37.4 °F 87% 29.53 in 6.2 mi Variable 1.2 mph - N/A   Mostly Cloudy